Weather in Novoye Buyanovo

Russia / Chuvash Republic     55°33′49″N   47°47′55″E
temp.,
°C
wind,
m/s
gust,
m/s
humid.,
%
clouds,
%
prec.,
mm/h
press.,
hPa
HPBL,
m
24 september, fri
fri2400:00+8se61394100 3.1 1016716
03:00+9se61293100 4.7 1015755
06:00+8se51295100 0.4 1014715
09:00+9se51191100 0.6 1013603
12:00+10se51082100 0.1 1013600
15:00+11sse61074100 0.1 1012610
18:00+10se51097100 1.9 1012565
21:00+9sse71392100 5.1 1013698
25 september, sat
sat2500:00+8se61292100 1.7 1012641
03:00+7se5995100 2.8 1012411
06:00+7se3795100 0.4 1011394
09:00+8ese3489100 0.4 1011337
12:00+10ese237897 0.0 1011467
15:00+10e2274100 0.0 1011539
18:00+9ene228588 0.0 101137
21:00+8e2290100 0.0 101153
26 september, sun
sun2600:00+8e1188100 0.0 101134
03:00+8e1188100 0.0 101018
06:00+7ne1189100 0.0 101031
09:00+8ne1283100 0.0 1009204
12:00+10ene2172100 0.0 1009515
15:00+11ne3367100 0.0 1008712
18:00+9nne3380100 0.0 100957
21:00+8nne348899 0.0 100995
27 september, mon
mon2700:00+8nne3590100 0.0 1009235
03:00+8nne4794100 0.0 1010341
06:00+8nne5894100 0.0 1011507
09:00+9ene61075100 0.0 1012649
12:00+9ene6977100 0.1 1015847
15:00+7ene6987100 0.4 1018590
18:00+6ne51180100 0.3 1020702
21:00+4ne5118199 0.3 1022329
28 september, tue
tue2800:00+3ne410797 0.0 1024281
03:00+1ne49804 0.0 1026217
06:000ne388599 0.0 1027158
09:00+5ne56635 0.0 1029463
12:00+9ne444763 0.0 10291048
15:00+9nne4445100 0.0 10291209
18:00+6nne3460100 0.0 103048
21:00+3nne34715 0.0 103157